Wind_Speed
22 22 23 23 22 22 22 23 23 23 23 23 22 22 22 22 23 22 20 21 22 22 24 23 22 22 22 21 20 19 19 18 17 16 15 14 13 13 12 11 11 10 9
19 20 20 21 21 21 21 22 23 23 24 23 23 23 23 23 24 24 23 22 23 24 24 25 25 25 25 24 24 23 22 20 19 18 18 16 15 14 14 13 12 12 11
19 19 19 21 22 22 22 23 24 24 24 24 24 23 24 24 23 24 24 23 23 24 25 26 28 27 27 27 26 26 25 23 22 21 20 19 18 17 16 15 14 14 13
18 19 20 21 21 21 22 22 23 23 24 25 25 25 25 24 25 25 25 25 24 25 26 27 28 29 30 29 29 28 28 26 25 24 23 22 20 19 18 17 16 15 15
19 20 20 21 22 22 23 23 23 24 25 26 26 26 26 26 26 26 26 27 27 26 27 28 28 29 31 32 31 30 30 30 28 27 26 25 23 22 21 19 18 17 17
20 20 21 21 23 24 24 25 26 26 27 28 29 29 28 28 28 28 28 28 28 28 28 28 29 29 30 32 33 32 32 32 31 30 29 28 27 25 24 22 21 20 19
21 21 22 23 24 25 26 27 27 27 28 29 30 30 30 30 30 29 29 30 30 30 30 29 29 29 30 31 32 33 34 34 33 33 31 30 29 28 27 25 24 23 22
21 22 22 23 25 26 26 27 28 28 29 30 30 30 31 31 32 31 31 31 31 31 31 31 30 30 30 31 31 33 34 35 35 35 34 34 33 32 30 28 27 25 24
22 23 24 24 25 26 27 27 27 28 29 29 30 30 30 31 32 32 33 33 33 33 32 33 32 31 31 31 32 33 35 36 36 36 36 35 35 34 34 32 30 28 27
23 24 24 25 25 26 26 26 26 27 28 29 30 30 30 31 32 32 33 33 33 33 34 34 33 33 33 33 33 34 36 37 37 36 36 37 37 36 36 35 33 31 29
24 24 24 25 25 26 26 26 26 27 28 29 30 31 31 32 32 33 34 35 35 34 35 35 35 35 34 34 34 35 37 38 38 37 38 37 37 38 37 36 36 34 32
24 24 24 25 25 26 26 26 27 28 29 29 30 31 32 32 33 34 35 35 36 36 36 36 36 36 36 36 36 36 37 38 39 39 39 38 38 39 39 38 38 37 35
24 24 25 25 26 26 26 27 27 28 28 29 30 31 32 33 34 35 35 36 37 37 37 37 37 38 38 38 37 38 38 38 39 39 39 40 39 39 40 39 39 38 37
25 26 26 26 27 27 27 27 27 27 28 29 30 31 31 32 34 35 36 36 37 38 39 38 38 38 39 40 39 40 40 40 40 40 40 40 41 40 39 40 40 40 38
26 26 27 27 27 28 28 28 28 29 29 30 31 32 33 33 34 35 36 37 38 38 39 39 39 39 39 39 40 40 41 40 41 41 41 42 42 41 40 39 40 41 40
28 28 29 29 29 29 30 30 31 31 32 33 33 33 34 34 35 35 36 37 37 38 38 39 40 41 40 39 40 41 41 41 41 42 42 43 43 43 42 41 40 40 41
28 29 30 30 31 31 32 33 34 34 34 35 35 35 35 35 36 36 36 37 37 37 38 39 40 41 41 41 40 40 41 42 42 42 42 43 43 44 43 42 41 40 41
29 30 31 32 32 33 33 34 35 36 36 36 36 36 36 36 37 37 37 36 36 37 38 38 40 40 41 42 41 41 42 42 43 43 42 43 44 44 44 43 41 41 41
31 32 33 34 35 35 35 36 36 37 36 36 35 35 35 36 36 36 37 36 36 37 38 38 40 41 42 41 41 42 42 43 42 42 43 43 44 44 44 44 43 42 42
33 34 35 37 37 37 37 37 37 36 35 35 34 34 34 34 35 35 35 36 37 37 38 38 39 41 43 43 43 42 43 44 43 43 43 43 44 45 45 45 44 43 42
35 36 37 38 39 39 39 38 37 35 34 33 33 33 34 34 34 35 35 36 36 36 38 38 39 40 42 44 44 43 42 44 45 44 44 44 44 45 46 45 45 44 43
37 38 39 40 41 40 40 38 37 35 34 33 33 33 33 33 34 34 35 36 36 37 37 38 39 39 41 43 44 45 44 43 44 45 46 45 44 45 47 46 46 45 45
39 40 41 42 42 41 40 39 37 36 34 34 33 32 31 32 32 33 34 35 36 36 37 37 38 38 40 42 44 45 45 45 44 44 45 46 46 45 46 46 46 46 46
41 42 42 43 43 42 40 38 36 35 34 33 32 31 31 31 32 32 33 33 34 35 36 37 37 37 39 40 42 44 45 45 45 45 46 46 47 45 45 45 46 46 47
42 43 43 43 43 42 40 38 36 34 33 32 31 30 30 31 31 31 32 33 34 35 36 36 37 37 38 39 41 43 44 45 45 45 45 46 47 47 47 45 45 46 47
43 44 44 44 43 41 39 37 35 34 33 32 31 30 30 30 30 30 31 32 33 34 35 36 37 37 38 39 40 41 44 45 45 45 46 46 47 48 48 47 47 46 48
Wind_Direction
282 282 280 275 271 270 268 267 267 269 270 267 266 265 266 263 263 257 255 255 254 251 243 242 242 240 238 237 235 234 233 230 228 225 221 218 215 214 214 212 209 205 201
287 288 287 282 279 276 272 269 270 271 272 271 267 266 264 265 262 259 257 254 254 252 246 243 243 242 239 238 236 235 233 232 231 228 226 223 221 218 217 216 214 211 209
289 290 291 289 282 277 276 274 272 272 271 271 269 269 266 262 261 259 258 254 254 253 249 244 243 243 240 238 237 236 234 233 232 230 229 227 225 222 220 219 217 216 215
291 292 291 289 282 280 278 276 275 276 275 271 270 268 267 264 260 258 259 257 254 254 253 250 246 243 240 239 238 237 235 234 233 232 230 229 227 225 223 221 220 220 220
293 292 290 289 284 284 283 280 278 276 274 271 270 271 269 266 262 260 260 258 257 256 255 254 250 246 242 239 238 237 236 234 233 233 232 230 228 226 224 223 223 223 223
297 294 289 286 285 284 283 281 279 276 274 272 271 270 269 265 262 260 260 258 257 256 255 253 252 248 243 240 238 237 236 235 233 233 232 230 229 228 226 225 225 225 226
299 297 293 289 286 285 283 281 279 276 275 272 270 269 268 266 262 260 258 257 256 255 255 253 253 250 244 241 239 238 236 235 234 232 231 231 230 229 228 228 227 227 228
305 303 299 295 291 288 286 283 280 277 275 273 271 269 267 265 261 260 259 257 256 254 253 253 253 251 246 242 241 239 236 235 235 233 232 231 231 231 231 231 230 229 230
307 305 302 298 295 291 288 285 282 279 276 274 271 269 268 266 264 261 259 257 255 254 254 253 252 250 248 245 243 241 238 235 234 234 233 231 231 232 232 233 232 231 231
309 307 304 301 298 295 292 288 284 281 278 276 273 271 269 267 265 262 259 257 254 255 254 251 250 250 248 246 243 240 239 237 235 234 233 232 232 232 232 233 233 232 233
312 310 308 306 303 300 297 293 288 284 281 278 276 273 270 267 265 264 262 258 255 255 253 250 248 248 246 246 244 241 239 239 237 235 234 233 234 233 233 233 232 232 233
316 314 311 309 306 303 300 296 292 288 284 281 278 275 272 269 267 264 263 260 258 255 253 250 248 248 247 246 244 242 240 240 238 237 235 234 234 234 234 233 233 233 232
318 317 315 312 309 306 303 299 296 291 287 284 281 277 274 271 268 265 263 260 259 257 255 252 250 248 247 246 244 242 241 240 239 238 236 235 235 234 233 233 233 232 232
321 320 318 315 312 309 306 303 299 295 291 288 284 281 277 274 271 267 264 261 258 257 255 253 251 248 246 245 245 243 241 241 239 237 237 236 235 234 233 233 232 231 232
322 320 319 316 313 309 307 304 301 297 294 290 287 283 280 276 273 269 265 262 259 257 255 253 251 249 247 246 244 244 243 241 239 237 237 236 235 233 232 232 231 231 231
323 322 319 317 314 310 307 303 301 298 294 291 287 284 280 277 274 271 268 264 261 258 255 252 250 249 248 246 244 242 242 240 240 238 237 235 235 233 233 232 231 231 231
324 323 321 318 315 311 308 304 301 297 294 291 288 284 281 278 275 272 268 265 262 258 255 252 250 248 247 246 244 242 241 240 240 239 238 235 234 233 232 232 231 231 232
324 323 322 319 316 313 309 306 303 299 295 291 288 284 280 277 275 272 268 265 262 259 256 253 251 249 247 246 245 242 241 240 239 240 240 238 234 232 232 232 232 231 231
325 324 323 321 319 316 312 308 305 302 297 292 288 285 281 278 275 272 269 265 262 260 257 254 252 249 247 246 245 242 241 239 238 238 238 238 234 232 231 231 231 230 230
325 325 324 322 320 318 315 311 308 305 300 295 290 286 282 278 275 272 269 266 263 261 258 255 252 250 248 246 245 243 241 239 238 236 237 236 234 232 231 230 229 229 228
326 325 324 323 321 319 316 313 309 306 302 298 293 288 283 279 276 273 269 266 264 262 259 256 252 250 248 246 244 242 241 239 237 236 236 235 234 231 229 229 228 227 227
326 326 325 324 322 320 317 314 311 307 304 300 296 291 285 281 277 274 270 267 264 262 259 256 253 250 248 246 243 242 240 238 237 235 234 234 233 231 229 228 227 226 225
326 325 325 324 322 320 317 314 311 308 305 302 298 293 288 283 279 275 272 267 264 261 259 256 253 251 248 246 243 241 239 237 236 235 234 232 231 230 229 228 226 224 224
326 325 325 324 323 320 318 315 312 310 307 303 299 295 290 285 281 277 273 268 264 261 259 256 252 250 247 244 242 240 238 237 236 234 232 231 229 229 227 227 226 225 224
327 325 324 324 323 321 318 316 314 312 310 306 302 297 293 289 284 279 274 269 265 262 259 256 253 249 247 244 242 240 238 236 234 234 233 230 228 228 226 225 225 225 224
326 326 325 324 323 321 319 317 315 314 311 308 304 299 295 290 286 281 276 271 267 263 260 257 253 249 246 243 242 239 237 235 233 232 232 230 228 227 226 226 226 226 224
Height
5864 5865 5865 5865 5865 5866 5867 5868 5869 5870 5871 5871 5872 5873 5873 5874 5874 5875 5877 5878 5879 5881 5884 5886 5889 5891 5893 5896 5898 5901 5903 5906 5908 5910 5912 5914 5916 5917 5919 5921 5923 5925 5927
5860 5861 5861 5861 5861 5861 5861 5862 5863 5865 5866 5867 5867 5868 5869 5869 5869 5870 5872 5873 5874 5876 5879 5881 5884 5886 5889 5892 5894 5897 5900 5903 5905 5907 5910 5912 5914 5916 5918 5920 5922 5924 5926
5857 5857 5857 5857 5857 5857 5857 5857 5857 5858 5859 5861 5862 5863 5863 5864 5864 5865 5866 5868 5869 5871 5873 5876 5878 5881 5884 5887 5890 5893 5896 5899 5902 5904 5907 5909 5911 5914 5916 5918 5920 5922 5924
5853 5852 5853 5852 5852 5852 5852 5852 5852 5853 5854 5855 5856 5857 5857 5858 5859 5860 5861 5863 5864 5866 5868 5870 5872 5875 5878 5881 5884 5888 5891 5894 5897 5900 5903 5906 5908 5911 5913 5915 5918 5920 5922
5848 5848 5848 5847 5847 5847 5847 5847 5847 5847 5848 5848 5849 5850 5851 5852 5853 5854 5855 5857 5859 5860 5862 5864 5866 5868 5872 5875 5878 5882 5885 5889 5892 5896 5899 5902 5905 5907 5910 5913 5915 5918 5920
5844 5843 5843 5843 5842 5842 5842 5841 5841 5841 5841 5841 5842 5843 5844 5845 5845 5847 5848 5850 5852 5854 5856 5857 5860 5862 5865 5868 5871 5875 5879 5883 5887 5890 5894 5897 5900 5903 5906 5909 5912 5914 5917
5840 5838 5838 5837 5836 5836 5835 5835 5834 5834 5834 5834 5835 5836 5837 5837 5839 5840 5841 5843 5845 5847 5849 5851 5853 5855 5858 5861 5864 5868 5872 5876 5880 5884 5888 5892 5895 5899 5902 5905 5908 5911 5913
5835 5833 5832 5831 5830 5829 5828 5828 5827 5827 5827 5827 5828 5828 5829 5831 5831 5832 5834 5835 5837 5839 5841 5843 5846 5848 5851 5854 5857 5861 5865 5869 5873 5877 5881 5885 5889 5893 5897 5900 5903 5906 5909
5830 5828 5826 5825 5824 5823 5822 5821 5820 5819 5819 5819 5819 5820 5821 5822 5823 5824 5825 5827 5829 5831 5833 5835 5837 5840 5843 5846 5850 5853 5857 5862 5866 5870 5874 5878 5883 5887 5891 5894 5898 5901 5905
5825 5823 5821 5819 5817 5816 5814 5813 5812 5812 5811 5811 5811 5811 5812 5813 5814 5815 5816 5818 5819 5822 5824 5827 5829 5832 5835 5838 5842 5846 5849 5853 5858 5862 5867 5871 5876 5880 5884 5888 5892 5895 5899
5820 5818 5816 5813 5811 5809 5808 5806 5805 5804 5803 5803 5803 5803 5804 5804 5805 5806 5808 5809 5811 5813 5816 5818 5821 5824 5827 5830 5833 5837 5841 5845 5849 5854 5859 5863 5868 5872 5876 5881 5885 5889 5893
5815 5813 5810 5808 5806 5803 5801 5800 5798 5797 5796 5795 5794 5794 5795 5795 5796 5797 5798 5800 5801 5804 5806 5809 5812 5815 5818 5822 5825 5828 5832 5836 5841 5845 5850 5855 5860 5864 5869 5873 5878 5882 5886
5810 5808 5805 5802 5800 5797 5795 5793 5791 5789 5788 5787 5786 5785 5785 5785 5786 5787 5788 5790 5792 5794 5796 5799 5802 5805 5808 5812 5816 5820 5823 5828 5832 5837 5841 5846 5851 5856 5860 5865 5870 5875 5879
5806 5802 5799 5796 5794 5791 5788 5786 5784 5782 5780 5779 5778 5777 5776 5776 5776 5777 5778 5779 5781 5783 5786 5789 5791 5795 5798 5802 5806 5810 5814 5819 5823 5827 5832 5837 5842 5847 5852 5857 5862 5867 5872
5801 5798 5794 5791 5788 5785 5782 5779 5777 5774 5772 5771 5769 5768 5767 5766 5766 5766 5767 5769 5771 5773 5775 5778 5781 5784 5788 5791 5796 5800 5804 5809 5813 5818 5823 5828 5833 5838 5843 5848 5853 5859 5864
5796 5792 5789 5785 5782 5778 5775 5772 5769 5766 5764 5762 5760 5759 5757 5756 5756 5756 5756 5757 5759 5761 5764 5767 5769 5772 5776 5781 5785 5790 5794 5798 5803 5808 5812 5818 5823 5829 5834 5840 5845 5850 5856
5791 5787 5783 5779 5775 5771 5767 5764 5761 5758 5755 5752 5750 5748 5747 5745 5745 5745 5745 5746 5748 5750 5752 5755 5757 5761 5765 5769 5773 5778 5783 5787 5792 5797 5802 5808 5813 5819 5825 5830 5836 5841 5847
5787 5782 5778 5773 5768 5764 5760 5756 5752 5748 5745 5742 5739 5737 5736 5734 5734 5733 5734 5735 5736 5738 5741 5744 5746 5750 5753 5757 5762 5767 5772 5776 5781 5787 5792 5797 5803 5809 5815 5821 5827 5833 5839
5781 5776 5771 5766 5761 5756 5751 5746 5742 5738 5734 5731 5729 5726 5725 5723 5723 5722 5722 5723 5725 5727 5729 5732 5735 5738 5742 5746 5750 5755 5760 5765 5771 5776 5781 5787 5793 5799 5805 5811 5818 5824 5830
5775 5770 5764 5758 5753 5747 5742 5737 5732 5728 5724 5721 5718 5716 5714 5712 5711 5711 5711 5712 5713 5715 5717 5720 5723 5726 5730 5734 5738 5743 5748 5754 5759 5765 5771 5776 5782 5788 5795 5802 5808 5814 5820
5768 5763 5757 5750 5744 5738 5733 5727 5722 5718 5714 5710 5707 5705 5703 5702 5700 5700 5700 5700 5701 5703 5705 5707 5711 5714 5718 5722 5726 5730 5736 5742 5748 5753 5759 5765 5771 5778 5784 5791 5798 5804 5811
5761 5755 5749 5742 5736 5729 5724 5718 5713 5708 5704 5700 5697 5694 5692 5691 5690 5689 5688 5689 5690 5691 5693 5695 5698 5702 5706 5709 5714 5718 5724 5730 5737 5742 5748 5754 5760 5767 5774 5781 5788 5794 5801
5754 5748 5741 5734 5727 5721 5715 5708 5703 5698 5694 5690 5687 5684 5681 5680 5678 5678 5677 5677 5678 5679 5681 5683 5686 5689 5693 5697 5701 5707 5711 5717 5724 5730 5736 5743 5749 5756 5763 5770 5777 5784 5791
5746 5740 5733 5726 5719 5712 5706 5700 5694 5689 5684 5680 5677 5674 5671 5669 5668 5666 5666 5666 5666 5667 5669 5671 5675 5677 5680 5684 5688 5694 5699 5705 5712 5718 5725 5732 5738 5745 5752 5759 5766 5773 5780
5739 5732 5725 5717 5710 5703 5697 5691 5685 5680 5676 5671 5668 5664 5661 5659 5657 5656 5655 5655 5655 5655 5657 5659 5662 5665 5668 5672 5676 5681 5687 5694 5700 5707 5713 5720 5728 5734 5741 5748 5756 5763 5770
5730 5723 5716 5709 5702 5695 5688 5682 5676 5672 5667 5663 5659 5655 5652 5649 5647 5645 5644 5643 5643 5644 5645 5647 5650 5653 5656 5660 5664 5669 5675 5682 5688 5695 5702 5709 5716 5723 5731 5738 5745 5752 5760